Home > Weather > Kwajalein > Past weeks

Flag for Marshall Islands Past Weather in Kwajalein, Marshall Islands — Yesterday and Last 2 Weeks

Now
82 °F

Passing clouds.


Feels Like: 87 °F
Forecast: 82 / 89 °F
Wind: 13 mph from East

Location: Kwajalein / Bucholz

Current Time: Jul 30, 2016 at 9:12:53 PM

Latest Report: Jul 30, 2016 at 8:20 PM


Visibility: 10 mi

Pressure: 29.80 "Hg

Humidity: 76%

Dew Point: 73 °F

Location of KwajaleinLocation

Past Weather in Kwajalein — Graph

°F

Kwajalein Temperature Yesterday

Maximum temperature yesterday: 83 °F (at 12:20 PM)
Minimum temperature yesterday: 76 °F (at 4:00 PM)
Average temperature yesterday: 81 °F

High & Low Weather Summary for the Past Weeks

 TemperatureHumidityPressure
High90 °F (Jul 24, 12:40 PM)90% (Jul 29, 2:40 PM)29.92 "Hg (Jul 29, 2:40 PM)
Low76 °F (Jul 29, 4:00 PM)59% (Jul 17, 4:00 PM)29.73 "Hg (Jul 23, 4:40 PM)
Average84 °F73%29.82 "Hg
* Reported Jul 15 8:00 PM — Jul 30 8:00 PM, Kwajalein, Weather by CustomWeather, © 2016

Note: Actual official high and low records may vary slightly from our data, if they occured in-between our weather recording intervals... More about our weather records

Advertising

Kwajalein Weather History for the Previous 24 Hours

Scroll right to see more
 ConditionsComfort  
Time TempWeatherWind HumidityBarometerVisibility
8:00 PM
Sat, Jul 30
82 °FClear.12 mph75%29.80 "Hg10 mi
7:40 PM82 °FPassing clouds.13 mph75%29.79 "Hg10 mi
7:20 PM82 °FPassing clouds.14 mph76%29.79 "Hg10 mi
7:00 PM82 °FScattered clouds.13 mph77%29.78 "Hg10 mi
6:40 PM81 °FScattered clouds.14 mph78%29.77 "Hg10 mi
6:20 PM80 °FScattered clouds.13 mph80%29.76 "Hg10 mi
6:00 PM80 °FSunny.10 mph81%29.77 "Hg10 mi
5:20 PM78 °FSunny.5 mph84%29.75 "Hg10 mi
5:00 PM78 °FSunny.6 mph84%29.75 "Hg10 mi
4:40 PM78 °FScattered clouds.5 mph84%29.75 "Hg10 mi
4:20 PM79 °FLight rain. Broken clouds.5 mph83%29.75 "Hg10 mi
4:00 PM80 °FRain. Broken clouds.8 mph80%29.75 "Hg7 mi
3:20 PM82 °FScattered clouds.12 mph77%29.75 "Hg10 mi
3:00 PM83 °FScattered clouds.9 mph75%29.75 "Hg10 mi
2:40 PM84 °FScattered clouds.9 mph72%29.76 "Hg10 mi
2:20 PM84 °FBroken clouds.10 mph72%29.77 "Hg10 mi
2:00 PM85 °FScattered clouds.15 mph72%29.77 "Hg10 mi
1:40 PM85 °FScattered clouds.8 mph72%29.78 "Hg10 mi
1:20 PM84 °FScattered clouds.12 mph72%29.78 "Hg10 mi
1:00 PM83 °FScattered clouds.12 mph74%29.80 "Hg10 mi
12:20 PM82 °FScattered clouds.12 mph76%29.82 "Hg10 mi
12:00 PM82 °FScattered clouds.12 mph76%29.81 "Hg10 mi
11:20 AM83 °FLight rain. Cloudy.8 mph74%29.83 "Hg7 mi
11:00 AM84 °FBroken clouds.20 mph73%29.82 "Hg10 mi
10:20 AM84 °FScattered clouds.9 mph72%29.83 "Hg10 mi
10:00 AM84 °FScattered clouds.10 mph72%29.83 "Hg10 mi
9:20 AM84 °FBroken clouds.12 mph71%29.83 "Hg10 mi
9:00 AM84 °FScattered clouds.10 mph71%29.83 "Hg10 mi
8:40 AM83 °FBroken clouds.10 mph73%29.83 "Hg10 mi
8:20 AM83 °FBroken clouds.12 mph73%29.82 "Hg10 mi
8:00 AM82 °FScattered clouds.9 mph75%29.81 "Hg10 mi
7:20 AM82 °FSunny.10 mph75%29.80 "Hg10 mi
7:00 AM82 °FScattered clouds.9 mph75%29.79 "Hg10 mi
6:20 AM81 °FPassing clouds.9 mph75%29.79 "Hg10 mi
6:00 AM81 °FClear.10 mph75%29.79 "Hg10 mi
5:40 AM81 °FClear.7 mph75%29.78 "Hg10 mi
5:20 AM81 °FPassing clouds.12 mph75%29.78 "Hg10 mi
5:00 AM81 °FPassing clouds.9 mph76%29.78 "Hg10 mi
4:20 AM80 °FClear.9 mph78%29.78 "Hg10 mi
4:00 AM80 °FClear.7 mph78%29.78 "Hg10 mi
3:40 AM80 °FClear.7 mph79%29.78 "Hg10 mi
3:20 AM80 °FClear.5 mph79%29.79 "Hg10 mi
3:00 AM80 °FClear.5 mph79%29.79 "Hg10 mi
2:40 AM80 °FClear.3 mph79%29.80 "Hg10 mi
2:20 AM80 °FClear.3 mph79%29.80 "Hg10 mi
2:00 AM80 °FClear.3 mph79%29.80 "Hg10 mi
1:40 AM79 °FClear.No wind80%29.80 "Hg10 mi
1:20 AM79 °FClear.No wind80%29.80 "Hg10 mi
1:00 AM79 °FClear.3 mph81%29.80 "Hg10 mi
12:20 AM79 °FClear.No wind81%29.81 "Hg10 mi
12:00 AM79 °FClear.No wind81%29.82 "Hg10 mi
11:20 PM
Fri, Jul 29
79 °FClear.5 mph80%29.82 "Hg10 mi
11:00 PM80 °FClear.5 mph80%29.82 "Hg10 mi
10:20 PM80 °FClear.No wind79%29.83 "Hg10 mi
10:00 PM79 °FClear.No wind80%29.83 "Hg10 mi
9:40 PM80 °FClear.No wind79%29.83 "Hg10 mi
9:20 PM80 °FClear.No wind79%29.83 "Hg10 mi
9:00 PM80 °FClear.5 mph79%29.84 "Hg10 mi
Weather by CustomWeather, © 2016

See weather overviewHow to use our weather pages